Misión y Visión

La misión es proporcionar información fiable a la navegación aérea, contribuyendo a la seguridad, regularidad y eficiencia de la Navegación Aérea Internacional

La visión es contribuir sustancialmente al desarrollo de conocimientos y a la utilización de la meteorología aeronáutica a nivel nacional e internacional, mediante la innovación y la coparticipación con sectores sociales y productivos de la sociedad.

 
  Inicio
  Metar
  Taf
  Wintemp
  SIGMET
  Avisos
  Pronósticos
  Carpeta Meteorologica
  Imágenes Satelitales
  Climatología Aeronáutica
   
  ¿Quienes Somos?
  Contacto
  Eventos
Taf

 

IMÁGENES DEL AEROPUERTO
(EN CONSTRUCCION)

 

PRONOSTICO DE AERÓDROMO
TAF / PROYECCION CLIMATICA
MES DE JULIO

 

AEROPUERTO ENRIQUE MALEK:

TAF MPSM 301100Z 3012/0118 34004KT 9999 FEW020 SCT100 PROB40 TEMPO 3018/3022 16006KT 6000 -TSRA SCT015CB TEMPO 3022/0101 35006KT=


TAF:

TAF MPDA 300400Z 3006/3018 00000KT 9999 FEW020 SCT100 BECMG 3015/3018 20004KT=

 

AEROPUERTO PANAMA PACIFICO:

hola



TAF:



AEROPUERTO MARCOS A. GELABERT:

TAF MPMG 231630Z 2318/2406 15008KT 9999 SCT018 SCT090 PROB30 TEMPO 2320/2323 7000 -TSRA FEW016CB BKN090 BECMG 2400/2404 00000KT 9999 SCT020 SCT100



TAF:

TAF MPMG 231630Z 2318/2406 15008KT 9999 SCT018 SCT090 PROB30 TEMPO 2320/2323 7000 -TSRA FEW016CB BKN090 BECMG 2400/2404 00000KT 9999 SCT020 SCT100

AEROPUERTO INTL. DE TOCUMEN:

TAF MPPA 301100Z 3012/0118 00000KT 9999 FEW010 SCT100 PROB40 TEMPO 3018/3022 16005KT 6000 -TSRA SCT015CB TEMPO 3022/0101 00000KT=



TAF:

TAF MPTO 301100Z 3012/0118 00000KT 9999 FEW020 SCT100 PROB40 TEMPO 3018/3022 2005KT 6000 -TSRA SCT015CB TEMPO 3022/0101 00000KT=


 
 



























  Noticias AAC
  Directorio
  Contáctenos
  Historia
  Quejas y Sugerencias
  Etica y Transparencia

  Gestión SSP/SMS
  Seguridad Aérea
  Navegación Aérea
  Transporte Aéreo

  Tramites
  Áeronaves de Alquiler

  Meteorología
  I.S.F.P.A
  Notam
  Peligro Aviario
  AVSEC
  UPIA
  Permisos
 




DECLARACIÓN DE PRIVACIDAD